#datetime,building,power
2022-08-21T00:00:00,mfh,17.91
2022-08-21T00:01:00,mfh,17.88
2022-08-21T00:02:00,mfh,18.93
2022-08-21T00:03:00,mfh,17.92
2022-08-21T00:04:00,mfh,17.16
2022-08-21T00:05:00,mfh,17.51
2022-08-21T00:06:00,mfh,17.23
2022-08-21T00:07:00,mfh,17.17
2022-08-21T00:08:00,mfh,17.77
2022-08-21T00:09:00,mfh,17.83
2022-08-21T00:10:00,mfh,17.82
2022-08-21T00:11:00,mfh,17.88
2022-08-21T00:12:00,mfh,17.21
2022-08-21T00:13:00,mfh,17.67
2022-08-21T00:14:00,mfh,18.08
2022-08-21T00:15:00,mfh,17.59
2022-08-21T00:16:00,mfh,18.14
2022-08-21T00:17:00,mfh,18.21
2022-08-21T00:18:00,mfh,18.19
2022-08-21T00:19:00,mfh,18.19
2022-08-21T00:20:00,mfh,17.50
2022-08-21T00:21:00,mfh,17.45
2022-08-21T00:22:00,mfh,17.53
2022-08-21T00:23:00,mfh,17.46
2022-08-21T00:24:00,mfh,17.46
2022-08-21T00:25:00,mfh,18.02
2022-08-21T00:26:00,mfh,18.16
2022-08-21T00:27:00,mfh,18.55
2022-08-21T00:28:00,mfh,17.25
2022-08-21T00:29:00,mfh,17.32
2022-08-21T00:30:00,mfh,17.31
2022-08-21T00:31:00,mfh,17.51
2022-08-21T00:32:00,mfh,17.92
2022-08-21T00:33:00,mfh,18.09
2022-08-21T00:34:00,mfh,19.08
2022-08-21T00:35:00,mfh,18.12
2022-08-21T00:36:00,mfh,18.15
2022-08-21T00:37:00,mfh,17.56
2022-08-21T00:38:00,mfh,17.44
2022-08-21T00:39:00,mfh,17.53
2022-08-21T00:40:00,mfh,17.42
2022-08-21T00:41:00,mfh,18.00
2022-08-21T00:42:00,mfh,18.07
2022-08-21T00:43:00,mfh,17.94
2022-08-21T00:44:00,mfh,17.55
2022-08-21T00:45:00,mfh,17.37
2022-08-21T00:46:00,mfh,17.40
2022-08-21T00:47:00,mfh,18.09
2022-08-21T00:48:00,mfh,17.52
2022-08-21T00:49:00,mfh,18.15
2022-08-21T00:50:00,mfh,18.10
2022-08-21T00:51:00,mfh,18.05
2022-08-21T00:52:00,mfh,17.35
2022-08-21T00:53:00,mfh,17.35
2022-08-21T00:54:00,mfh,17.35
2022-08-21T00:55:00,mfh,17.34
2022-08-21T00:56:00,mfh,17.52
2022-08-21T00:57:00,mfh,18.75
2022-08-21T00:58:00,mfh,17.60
2022-08-21T00:59:00,mfh,17.69
2022-08-21T01:00:00,mfh,17.31
2022-08-21T01:01:00,mfh,17.35
2022-08-21T01:02:00,mfh,18.55
2022-08-21T01:03:00,mfh,18.16
2022-08-21T01:04:00,mfh,18.20
2022-08-21T01:05:00,mfh,18.25
2022-08-21T01:06:00,mfh,17.58
2022-08-21T01:07:00,mfh,17.48
2022-08-21T01:08:00,mfh,17.44
2022-08-21T01:09:00,mfh,17.82
2022-08-21T01:10:00,mfh,18.46
2022-08-21T01:11:00,mfh,18.57
2022-08-21T01:12:00,mfh,18.57
2022-08-21T01:13:00,mfh,18.71
2022-08-21T01:14:00,mfh,17.97
2022-08-21T01:15:00,mfh,18.13
2022-08-21T01:16:00,mfh,18.03
2022-08-21T01:17:00,mfh,18.16
2022-08-21T01:18:00,mfh,18.71
2022-08-21T01:19:00,mfh,18.76
2022-08-21T01:20:00,mfh,18.86
2022-08-21T01:21:00,mfh,18.78
2022-08-21T01:22:00,mfh,18.18
2022-08-21T01:23:00,mfh,18.17
2022-08-21T01:24:00,mfh,18.29
2022-08-21T01:25:00,mfh,18.11
2022-08-21T01:26:00,mfh,19.05
2022-08-21T01:27:00,mfh,18.67
2022-08-21T01:28:00,mfh,18.72
2022-08-21T01:29:00,mfh,18.67
2022-08-21T01:30:00,mfh,17.87
2022-08-21T01:31:00,mfh,17.88
2022-08-21T01:32:00,mfh,17.80
2022-08-21T01:33:00,mfh,18.44
2022-08-21T01:34:00,mfh,17.80
2022-08-21T01:35:00,mfh,18.45
2022-08-21T01:36:00,mfh,18.45
2022-08-21T01:37:00,mfh,18.49
2022-08-21T01:38:00,mfh,17.72
2022-08-21T01:39:00,mfh,17.73
2022-08-21T01:40:00,mfh,17.81
2022-08-21T01:41:00,mfh,18.46
2022-08-21T01:42:00,mfh,19.15
2022-08-21T01:43:00,mfh,20.18
2022-08-21T01:44:00,mfh,19.27
2022-08-21T01:45:00,mfh,18.45
2022-08-21T01:46:00,mfh,18.09
2022-08-21T01:47:00,mfh,18.16
2022-08-21T01:48:00,mfh,18.16
2022-08-21T01:49:00,mfh,18.07
2022-08-21T01:50:00,mfh,17.98
2022-08-21T01:51:00,mfh,18.56
2022-08-21T01:52:00,mfh,18.93
2022-08-21T01:53:00,mfh,18.52
2022-08-21T01:54:00,mfh,17.85
2022-08-21T01:55:00,mfh,17.84
2022-08-21T01:56:00,mfh,18.29
2022-08-21T01:57:00,mfh,17.83
2022-08-21T01:58:00,mfh,18.39
2022-08-21T01:59:00,mfh,18.41
2022-08-21T02:00:00,mfh,18.41
2022-08-21T02:01:00,mfh,18.27
2022-08-21T02:02:00,mfh,18.24
2022-08-21T02:03:00,mfh,17.99
2022-08-21T02:04:00,mfh,17.62
2022-08-21T02:05:00,mfh,17.56
2022-08-21T02:06:00,mfh,17.89
2022-08-21T02:07:00,mfh,18.13
2022-08-21T02:08:00,mfh,18.06
2022-08-21T02:09:00,mfh,18.08
2022-08-21T02:10:00,mfh,18.34
2022-08-21T02:11:00,mfh,17.66
2022-08-21T02:12:00,mfh,17.83
2022-08-21T02:13:00,mfh,17.72
2022-08-21T02:14:00,mfh,17.72
2022-08-21T02:15:00,mfh,18.26
2022-08-21T02:16:00,mfh,18.30
2022-08-21T02:17:00,mfh,18.46
2022-08-21T02:18:00,mfh,18.52
2022-08-21T02:19:00,mfh,17.92
2022-08-21T02:20:00,mfh,18.02
2022-08-21T02:21:00,mfh,17.82
2022-08-21T02:22:00,mfh,17.80
2022-08-21T02:23:00,mfh,18.32
2022-08-21T02:24:00,mfh,18.35
2022-08-21T02:25:00,mfh,18.41
2022-08-21T02:26:00,mfh,18.40
2022-08-21T02:27:00,mfh,17.99
2022-08-21T02:28:00,mfh,17.71
2022-08-21T02:29:00,mfh,18.46
2022-08-21T02:30:00,mfh,17.79
2022-08-21T02:31:00,mfh,18.42
2022-08-21T02:32:00,mfh,18.17
2022-08-21T02:33:00,mfh,18.16
2022-08-21T02:34:00,mfh,18.20
2022-08-21T02:35:00,mfh,17.53
2022-08-21T02:36:00,mfh,17.51
2022-08-21T02:37:00,mfh,17.43
2022-08-21T02:38:00,mfh,17.62
2022-08-21T02:39:00,mfh,19.97
2022-08-21T02:40:00,mfh,17.79
2022-08-21T02:41:00,mfh,17.76
2022-08-21T02:42:00,mfh,17.75
2022-08-21T02:43:00,mfh,17.80
2022-08-21T02:44:00,mfh,18.85
2022-08-21T02:45:00,mfh,18.70
2022-08-21T02:46:00,mfh,18.66
2022-08-21T02:47:00,mfh,18.80
2022-08-21T02:48:00,mfh,18.45
2022-08-21T02:49:00,mfh,18.98
2022-08-21T02:50:00,mfh,18.18
2022-08-21T02:51:00,mfh,18.17
2022-08-21T02:52:00,mfh,18.75
2022-08-21T02:53:00,mfh,18.80
2022-08-21T02:54:00,mfh,18.88
2022-08-21T02:55:00,mfh,18.98
2022-08-21T02:56:00,mfh,18.21
2022-08-21T02:57:00,mfh,18.22
2022-08-21T02:58:00,mfh,18.07
2022-08-21T02:59:00,mfh,18.16
2022-08-21T03:00:00,mfh,18.16
2022-08-21T03:01:00,mfh,18.70
2022-08-21T03:02:00,mfh,18.72
2022-08-21T03:03:00,mfh,18.78
2022-08-21T03:04:00,mfh,19.10
2022-08-21T03:05:00,mfh,17.96
2022-08-21T03:06:00,mfh,17.96
2022-08-21T03:07:00,mfh,19.39
2022-08-21T03:08:00,mfh,19.40
2022-08-21T03:09:00,mfh,20.14
2022-08-21T03:10:00,mfh,20.02
2022-08-21T03:11:00,mfh,20.04
2022-08-21T03:12:00,mfh,20.11
2022-08-21T03:13:00,mfh,18.07
2022-08-21T03:14:00,mfh,17.83
2022-08-21T03:15:00,mfh,17.75
2022-08-21T03:16:00,mfh,17.74
2022-08-21T03:17:00,mfh,18.38
2022-08-21T03:18:00,mfh,18.33
2022-08-21T03:19:00,mfh,18.59
2022-08-21T03:20:00,mfh,18.54
2022-08-21T03:21:00,mfh,18.03
2022-08-21T03:22:00,mfh,18.02
2022-08-21T03:23:00,mfh,18.01
2022-08-21T03:24:00,mfh,18.06
2022-08-21T03:25:00,mfh,18.55
2022-08-21T03:26:00,mfh,18.54
2022-08-21T03:27:00,mfh,18.49
2022-08-21T03:28:00,mfh,18.52
2022-08-21T03:29:00,mfh,17.82
2022-08-21T03:30:00,mfh,17.95
2022-08-21T03:31:00,mfh,18.40
2022-08-21T03:32:00,mfh,17.87
2022-08-21T03:33:00,mfh,18.54
2022-08-21T03:34:00,mfh,18.80
2022-08-21T03:35:00,mfh,18.38
2022-08-21T03:36:00,mfh,18.41
2022-08-21T03:37:00,mfh,17.71
2022-08-21T03:38:00,mfh,18.20
2022-08-21T03:39:00,mfh,18.35
2022-08-21T03:40:00,mfh,17.92
2022-08-21T03:41:00,mfh,18.55
2022-08-21T03:42:00,mfh,18.59
2022-08-21T03:43:00,mfh,18.58
2022-08-21T03:44:00,mfh,18.62
2022-08-21T03:45:00,mfh,18.30
2022-08-21T03:46:00,mfh,17.88
2022-08-21T03:47:00,mfh,18.38
2022-08-21T03:48:00,mfh,18.00
2022-08-21T03:49:00,mfh,18.58
2022-08-21T03:50:00,mfh,18.85
2022-08-21T03:51:00,mfh,18.84
2022-08-21T03:52:00,mfh,18.84
2022-08-21T03:53:00,mfh,18.14
2022-08-21T03:54:00,mfh,18.14
2022-08-21T03:55:00,mfh,18.23
2022-08-21T03:56:00,mfh,18.17
2022-08-21T03:57:00,mfh,19.68
2022-08-21T03:58:00,mfh,18.70
2022-08-21T03:59:00,mfh,18.51
2022-08-21T04:00:00,mfh,18.62
2022-08-21T04:01:00,mfh,17.93
2022-08-21T04:02:00,mfh,17.85
2022-08-21T04:03:00,mfh,17.76
2022-08-21T04:04:00,mfh,17.85
2022-08-21T04:05:00,mfh,18.47
2022-08-21T04:06:00,mfh,18.21
2022-08-21T04:07:00,mfh,18.21
2022-08-21T04:08:00,mfh,18.33
2022-08-21T04:09:00,mfh,17.63
2022-08-21T04:10:00,mfh,17.57
2022-08-21T04:11:00,mfh,17.56
2022-08-21T04:12:00,mfh,18.43
2022-08-21T04:13:00,mfh,17.63
2022-08-21T04:14:00,mfh,18.27
2022-08-21T04:15:00,mfh,18.62
2022-08-21T04:16:00,mfh,18.30
2022-08-21T04:17:00,mfh,18.31
2022-08-21T04:18:00,mfh,17.70
2022-08-21T04:19:00,mfh,17.61
2022-08-21T04:20:00,mfh,17.61
2022-08-21T04:21:00,mfh,17.68
2022-08-21T04:22:00,mfh,18.59
2022-08-21T04:23:00,mfh,18.51
2022-08-21T04:24:00,mfh,18.54
2022-08-21T04:25:00,mfh,17.87
2022-08-21T04:26:00,mfh,17.92
2022-08-21T04:27:00,mfh,17.92
2022-08-21T04:28:00,mfh,18.33
2022-08-21T04:29:00,mfh,18.70
2022-08-21T04:30:00,mfh,18.66
2022-08-21T04:31:00,mfh,18.66
2022-08-21T04:32:00,mfh,18.59
2022-08-21T04:33:00,mfh,18.60
2022-08-21T04:34:00,mfh,18.79
2022-08-21T04:35:00,mfh,18.79
2022-08-21T04:36:00,mfh,18.91
2022-08-21T04:37:00,mfh,18.52
2022-08-21T04:38:00,mfh,18.64
2022-08-21T04:39:00,mfh,18.79
2022-08-21T04:40:00,mfh,18.77
2022-08-21T04:41:00,mfh,18.73
2022-08-21T04:42:00,mfh,18.01
2022-08-21T04:43:00,mfh,18.00
2022-08-21T04:44:00,mfh,18.01
2022-08-21T04:45:00,mfh,17.99
2022-08-21T04:46:00,mfh,18.94
2022-08-21T04:47:00,mfh,18.71
2022-08-21T04:48:00,mfh,18.73
2022-08-21T04:49:00,mfh,17.75
2022-08-21T04:50:00,mfh,17.76
2022-08-21T04:51:00,mfh,17.76
2022-08-21T04:52:00,mfh,17.76
2022-08-21T04:53:00,mfh,17.99
2022-08-21T04:54:00,mfh,18.71
2022-08-21T04:55:00,mfh,19.64
2022-08-21T04:56:00,mfh,18.80
2022-08-21T04:57:00,mfh,18.00
2022-08-21T04:58:00,mfh,17.99
2022-08-21T04:59:00,mfh,18.04
2022-08-21T05:00:00,mfh,18.05
2022-08-21T05:01:00,mfh,31.72
2022-08-21T05:02:00,mfh,33.05
2022-08-21T05:03:00,mfh,33.12
2022-08-21T05:04:00,mfh,33.25
2022-08-21T05:05:00,mfh,32.69
2022-08-21T05:06:00,mfh,32.63
2022-08-21T05:07:00,mfh,32.63
2022-08-21T05:08:00,mfh,32.52
2022-08-21T05:09:00,mfh,32.50
2022-08-21T05:10:00,mfh,33.04
2022-08-21T05:11:00,mfh,33.11
2022-08-21T05:12:00,mfh,33.21
2022-08-21T05:13:00,mfh,32.63
2022-08-21T05:14:00,mfh,32.42
2022-08-21T05:15:00,mfh,32.41
2022-08-21T05:16:00,mfh,32.48
2022-08-21T05:17:00,mfh,32.42
2022-08-21T05:18:00,mfh,32.99
2022-08-21T05:19:00,mfh,32.99
2022-08-21T05:20:00,mfh,32.96
2022-08-21T05:21:00,mfh,33.01
2022-08-21T05:22:00,mfh,32.33
2022-08-21T05:23:00,mfh,32.18
2022-08-21T05:24:00,mfh,32.45
2022-08-21T05:25:00,mfh,32.48
2022-08-21T05:26:00,mfh,33.07
2022-08-21T05:27:00,mfh,33.03
2022-08-21T05:28:00,mfh,33.78
2022-08-21T05:29:00,mfh,33.28
2022-08-21T05:30:00,mfh,32.47
2022-08-21T05:31:00,mfh,32.66
2022-08-21T05:32:00,mfh,32.40
2022-08-21T05:33:00,mfh,32.42
2022-08-21T05:34:00,mfh,33.10
2022-08-21T05:35:00,mfh,33.20
2022-08-21T05:36:00,mfh,33.28
2022-08-21T05:37:00,mfh,33.20
2022-08-21T05:38:00,mfh,32.84
2022-08-21T05:39:00,mfh,32.78
2022-08-21T05:40:00,mfh,32.46
2022-08-21T05:41:00,mfh,32.52
2022-08-21T05:42:00,mfh,33.11
2022-08-21T05:43:00,mfh,33.12
2022-08-21T05:44:00,mfh,33.21
2022-08-21T05:45:00,mfh,32.52
2022-08-21T05:46:00,mfh,32.65
2022-08-21T05:47:00,mfh,32.68
2022-08-21T05:48:00,mfh,32.56
2022-08-21T05:49:00,mfh,32.47
2022-08-21T05:50:00,mfh,33.15
2022-08-21T05:51:00,mfh,33.95
2022-08-21T05:52:00,mfh,33.10
2022-08-21T05:53:00,mfh,33.07
2022-08-21T05:54:00,mfh,32.41
2022-08-21T05:55:00,mfh,32.42
2022-08-21T05:56:00,mfh,32.08
2022-08-21T05:57:00,mfh,32.36
2022-08-21T05:58:00,mfh,32.74
2022-08-21T05:59:00,mfh,32.98
2022-08-21T06:00:00,mfh,32.58
2022-08-21T06:01:00,mfh,32.68
2022-08-21T06:02:00,mfh,32.15
2022-08-21T06:03:00,mfh,31.92
2022-08-21T06:04:00,mfh,32.02
2022-08-21T06:05:00,mfh,32.08
2022-08-21T06:06:00,mfh,32.67
2022-08-21T06:07:00,mfh,32.60
2022-08-21T06:08:00,mfh,32.67
2022-08-21T06:09:00,mfh,32.71
2022-08-21T06:10:00,mfh,32.29
2022-08-21T06:11:00,mfh,31.87
2022-08-21T06:12:00,mfh,31.97
2022-08-21T06:13:00,mfh,31.95
2022-08-21T06:14:00,mfh,31.98
2022-08-21T06:15:00,mfh,32.77
2022-08-21T06:16:00,mfh,32.89
2022-08-21T06:17:00,mfh,32.75
2022-08-21T06:18:00,mfh,32.12
2022-08-21T06:19:00,mfh,32.25
2022-08-21T06:20:00,mfh,32.18
2022-08-21T06:21:00,mfh,32.26
2022-08-21T06:22:00,mfh,32.97
2022-08-21T06:23:00,mfh,32.91
2022-08-21T06:24:00,mfh,32.93
2022-08-21T06:25:00,mfh,32.89
2022-08-21T06:26:00,mfh,32.26
2022-08-21T06:27:00,mfh,32.46
2022-08-21T06:28:00,mfh,32.33
2022-08-21T06:29:00,mfh,32.45
2022-08-21T06:30:00,mfh,33.04
2022-08-21T06:31:00,mfh,33.16
2022-08-21T06:32:00,mfh,33.07
2022-08-21T06:33:00,mfh,33.25
2022-08-21T06:34:00,mfh,32.48
2022-08-21T06:35:00,mfh,32.48
2022-08-21T06:36:00,mfh,32.46
2022-08-21T06:37:00,mfh,32.57
2022-08-21T06:38:00,mfh,33.24
2022-08-21T06:39:00,mfh,34.08
2022-08-21T06:40:00,mfh,33.25
2022-08-21T06:41:00,mfh,33.15
2022-08-21T06:42:00,mfh,32.41
2022-08-21T06:43:00,mfh,32.26
2022-08-21T06:44:00,mfh,32.20
2022-08-21T06:45:00,mfh,32.17
2022-08-21T06:46:00,mfh,32.22
2022-08-21T06:47:00,mfh,32.87
2022-08-21T06:48:00,mfh,32.84
2022-08-21T06:49:00,mfh,32.76
2022-08-21T06:50:00,mfh,32.15
2022-08-21T06:51:00,mfh,32.04
2022-08-21T06:52:00,mfh,32.02
2022-08-21T06:53:00,mfh,32.11
2022-08-21T06:54:00,mfh,32.08
2022-08-21T06:55:00,mfh,32.89
2022-08-21T06:56:00,mfh,32.79
2022-08-21T06:57:00,mfh,32.80
2022-08-21T06:58:00,mfh,31.98
2022-08-21T06:59:00,mfh,32.22
2022-08-21T07:00:00,mfh,32.34
2022-08-21T07:01:00,mfh,32.12
2022-08-21T07:02:00,mfh,33.95
2022-08-21T07:03:00,mfh,32.76
2022-08-21T07:04:00,mfh,33.07
2022-08-21T07:05:00,mfh,32.89
2022-08-21T07:06:00,mfh,32.09
2022-08-21T07:07:00,mfh,32.12
2022-08-21T07:08:00,mfh,32.28
2022-08-21T07:09:00,mfh,32.26
2022-08-21T07:10:00,mfh,32.15
2022-08-21T07:11:00,mfh,32.92
2022-08-21T07:12:00,mfh,32.86
2022-08-21T07:13:00,mfh,33.02
2022-08-21T07:14:00,mfh,33.00
2022-08-21T07:15:00,mfh,32.10
2022-08-21T07:16:00,mfh,32.14
2022-08-21T07:17:00,mfh,32.09
2022-08-21T07:18:00,mfh,31.93
2022-08-21T07:19:00,mfh,32.57
2022-08-21T07:20:00,mfh,33.32
2022-08-21T07:21:00,mfh,33.58
2022-08-21T07:22:00,mfh,32.73
2022-08-21T07:23:00,mfh,32.61
2022-08-21T07:24:00,mfh,31.59
2022-08-21T07:25:00,mfh,31.98
2022-08-21T07:26:00,mfh,31.53
2022-08-21T07:27:00,mfh,32.20
2022-08-21T07:28:00,mfh,32.25
2022-08-21T07:29:00,mfh,32.28
2022-08-21T07:30:00,mfh,32.30
2022-08-21T07:31:00,mfh,31.86
2022-08-21T07:32:00,mfh,32.10
2022-08-21T07:33:00,mfh,31.73
2022-08-21T07:34:00,mfh,31.72
2022-08-21T07:35:00,mfh,32.60
2022-08-21T07:36:00,mfh,32.32
2022-08-21T07:37:00,mfh,32.50
2022-08-21T07:38:00,mfh,32.50
2022-08-21T07:39:00,mfh,31.90
2022-08-21T07:40:00,mfh,31.79
2022-08-21T07:41:00,mfh,31.79
2022-08-21T07:42:00,mfh,31.89
2022-08-21T07:43:00,mfh,32.48
2022-08-21T07:44:00,mfh,32.47
2022-08-21T07:45:00,mfh,32.59
2022-08-21T07:46:00,mfh,33.15
2022-08-21T07:47:00,mfh,31.89
2022-08-21T07:48:00,mfh,31.72
2022-08-21T07:49:00,mfh,31.73
2022-08-21T07:50:00,mfh,31.69
2022-08-21T07:51:00,mfh,32.44
2022-08-21T07:52:00,mfh,32.33
2022-08-21T07:53:00,mfh,32.38
2022-08-21T07:54:00,mfh,32.40
2022-08-21T07:55:00,mfh,32.85
2022-08-21T07:56:00,mfh,31.88
2022-08-21T07:57:00,mfh,32.27
2022-08-21T07:58:00,mfh,32.06
2022-08-21T07:59:00,mfh,32.70
2022-08-21T08:00:00,mfh,32.68
2022-08-21T08:01:00,mfh,32.66
2022-08-21T08:02:00,mfh,32.60
2022-08-21T08:03:00,mfh,32.35
2022-08-21T08:04:00,mfh,32.59
2022-08-21T08:05:00,mfh,32.22
2022-08-21T08:06:00,mfh,32.44
2022-08-21T08:07:00,mfh,32.90
2022-08-21T08:08:00,mfh,33.48
2022-08-21T08:09:00,mfh,33.00
2022-08-21T08:10:00,mfh,32.90
2022-08-21T08:11:00,mfh,32.28
2022-08-21T08:12:00,mfh,32.41
2022-08-21T08:13:00,mfh,32.33
2022-08-21T08:14:00,mfh,32.16
2022-08-21T08:15:00,mfh,32.79
2022-08-21T08:16:00,mfh,32.85
2022-08-21T08:17:00,mfh,32.78
2022-08-21T08:18:00,mfh,32.81
2022-08-21T08:19:00,mfh,32.04
2022-08-21T08:20:00,mfh,31.97
2022-08-21T08:21:00,mfh,31.95
2022-08-21T08:22:00,mfh,31.83
2022-08-21T08:23:00,mfh,32.42
2022-08-21T08:24:00,mfh,32.55
2022-08-21T08:25:00,mfh,32.45
2022-08-21T08:26:00,mfh,32.49
2022-08-21T08:27:00,mfh,31.81
2022-08-21T08:28:00,mfh,32.00
2022-08-21T08:29:00,mfh,32.00
2022-08-21T08:30:00,mfh,31.94
2022-08-21T08:31:00,mfh,35.74
2022-08-21T08:32:00,mfh,35.78
2022-08-21T08:33:00,mfh,35.70
2022-08-21T08:34:00,mfh,35.71
2022-08-21T08:35:00,mfh,35.72
2022-08-21T08:36:00,mfh,36.01
2022-08-21T08:37:00,mfh,35.53
2022-08-21T08:38:00,mfh,35.52
2022-08-21T08:39:00,mfh,35.51
2022-08-21T08:40:00,mfh,36.52
2022-08-21T08:41:00,mfh,36.65
2022-08-21T08:42:00,mfh,36.62
2022-08-21T08:43:00,mfh,36.64
2022-08-21T08:44:00,mfh,36.68
2022-08-21T08:45:00,mfh,36.09
2022-08-21T08:46:00,mfh,36.16
2022-08-21T08:47:00,mfh,36.56
2022-08-21T08:48:00,mfh,36.48
2022-08-21T08:49:00,mfh,37.07
2022-08-21T08:50:00,mfh,37.11
2022-08-21T08:51:00,mfh,37.14
2022-08-21T08:52:00,mfh,37.02
2022-08-21T08:53:00,mfh,37.00
2022-08-21T08:54:00,mfh,37.82
2022-08-21T08:55:00,mfh,36.33
2022-08-21T08:56:00,mfh,36.23
2022-08-21T08:57:00,mfh,36.15
2022-08-21T08:58:00,mfh,36.65
2022-08-21T08:59:00,mfh,36.69
2022-08-21T09:00:00,mfh,36.66
2022-08-21T09:01:00,mfh,36.69
2022-08-21T09:02:00,mfh,36.73
2022-08-21T09:03:00,mfh,36.24
2022-08-21T09:04:00,mfh,36.02
2022-08-21T09:05:00,mfh,36.24
2022-08-21T09:06:00,mfh,36.03
2022-08-21T09:07:00,mfh,37.47
2022-08-21T09:08:00,mfh,36.86
2022-08-21T09:09:00,mfh,36.91
2022-08-21T09:10:00,mfh,37.08
2022-08-21T09:11:00,mfh,37.51
2022-08-21T09:12:00,mfh,36.41
2022-08-21T09:13:00,mfh,36.28
2022-08-21T09:14:00,mfh,36.25
2022-08-21T09:15:00,mfh,36.29
2022-08-21T09:16:00,mfh,37.24
2022-08-21T09:17:00,mfh,36.92
2022-08-21T09:18:00,mfh,38.44
2022-08-21T09:19:00,mfh,38.74
2022-08-21T09:20:00,mfh,39.04
2022-08-21T09:21:00,mfh,36.61
2022-08-21T09:22:00,mfh,36.70
2022-08-21T09:23:00,mfh,36.66
2022-08-21T09:24:00,mfh,37.30
2022-08-21T09:25:00,mfh,37.37
2022-08-21T09:26:00,mfh,37.44
2022-08-21T09:27:00,mfh,37.33
2022-08-21T09:28:00,mfh,37.40
2022-08-21T09:29:00,mfh,37.44
2022-08-21T09:30:00,mfh,36.70
2022-08-21T09:31:00,mfh,36.63
2022-08-21T09:32:00,mfh,36.67
2022-08-21T09:33:00,mfh,37.86
2022-08-21T09:34:00,mfh,37.27
2022-08-21T09:35:00,mfh,37.32
2022-08-21T09:36:00,mfh,37.50
2022-08-21T09:37:00,mfh,37.36
2022-08-21T09:38:00,mfh,37.45
2022-08-21T09:39:00,mfh,38.35
2022-08-21T09:40:00,mfh,38.04
2022-08-21T09:41:00,mfh,36.56
2022-08-21T09:42:00,mfh,37.34
2022-08-21T09:43:00,mfh,37.42
2022-08-21T09:44:00,mfh,37.59
2022-08-21T09:45:00,mfh,37.51
2022-08-21T09:46:00,mfh,38.86
2022-08-21T09:47:00,mfh,39.27
2022-08-21T09:48:00,mfh,38.12
2022-08-21T09:49:00,mfh,38.07
2022-08-21T09:50:00,mfh,38.06
2022-08-21T09:51:00,mfh,38.69
2022-08-21T09:52:00,mfh,38.80
2022-08-21T09:53:00,mfh,38.78
2022-08-21T09:54:00,mfh,38.76
2022-08-21T09:55:00,mfh,38.82
2022-08-21T09:56:00,mfh,38.23
2022-08-21T09:57:00,mfh,38.21
2022-08-21T09:58:00,mfh,38.27
2022-08-21T09:59:00,mfh,38.82
2022-08-21T10:00:00,mfh,38.93
2022-08-21T10:01:00,mfh,38.85
2022-08-21T10:02:00,mfh,38.62
2022-08-21T10:03:00,mfh,38.62
2022-08-21T10:04:00,mfh,39.34
2022-08-21T10:05:00,mfh,38.85
2022-08-21T10:06:00,mfh,38.83
2022-08-21T10:07:00,mfh,38.75
2022-08-21T10:08:00,mfh,38.80
2022-08-21T10:09:00,mfh,38.78
2022-08-21T10:10:00,mfh,38.78
2022-08-21T10:11:00,mfh,39.06
2022-08-21T10:12:00,mfh,38.71
2022-08-21T10:13:00,mfh,38.75
2022-08-21T10:14:00,mfh,38.29
2022-08-21T10:15:00,mfh,38.14
2022-08-21T10:16:00,mfh,38.09
2022-08-21T10:17:00,mfh,39.01
2022-08-21T10:18:00,mfh,38.95
2022-08-21T10:19:00,mfh,38.89
2022-08-21T10:20:00,mfh,38.94
2022-08-21T10:21:00,mfh,38.96
2022-08-21T10:22:00,mfh,39.14
2022-08-21T10:23:00,mfh,38.39
2022-08-21T10:24:00,mfh,38.86
2022-08-21T10:25:00,mfh,38.66
2022-08-21T10:26:00,mfh,39.20
2022-08-21T10:27:00,mfh,39.24
2022-08-21T10:28:00,mfh,39.01
2022-08-21T10:29:00,mfh,37.57
2022-08-21T10:30:00,mfh,37.55
2022-08-21T10:31:00,mfh,38.49
2022-08-21T10:32:00,mfh,39.01
2022-08-21T10:33:00,mfh,38.65
2022-08-21T10:34:00,mfh,39.30
2022-08-21T10:35:00,mfh,39.12
2022-08-21T10:36:00,mfh,37.46
2022-08-21T10:37:00,mfh,37.32
2022-08-21T10:38:00,mfh,37.33
2022-08-21T10:39:00,mfh,37.28
2022-08-21T10:40:00,mfh,36.64
2022-08-21T10:41:00,mfh,36.89
2022-08-21T10:42:00,mfh,36.68
2022-08-21T10:43:00,mfh,37.34
2022-08-21T10:44:00,mfh,37.15
2022-08-21T10:45:00,mfh,37.33
2022-08-21T10:46:00,mfh,37.19
2022-08-21T10:47:00,mfh,37.29
2022-08-21T10:48:00,mfh,37.18
2022-08-21T10:49:00,mfh,36.54
2022-08-21T10:50:00,mfh,36.42
2022-08-21T10:51:00,mfh,36.47
2022-08-21T10:52:00,mfh,37.72
2022-08-21T10:53:00,mfh,37.30
2022-08-21T10:54:00,mfh,37.26
2022-08-21T10:55:00,mfh,37.33
2022-08-21T10:56:00,mfh,37.34
2022-08-21T10:57:00,mfh,37.76
2022-08-21T10:58:00,mfh,36.82
2022-08-21T10:59:00,mfh,36.70
2022-08-21T11:00:00,mfh,36.95
2022-08-21T11:01:00,mfh,38.92
2022-08-21T11:02:00,mfh,38.94
2022-08-21T11:03:00,mfh,38.88
2022-08-21T11:04:00,mfh,38.83
2022-08-21T11:05:00,mfh,39.41
2022-08-21T11:06:00,mfh,38.89
2022-08-21T11:07:00,mfh,38.88
2022-08-21T11:08:00,mfh,38.94
2022-08-21T11:09:00,mfh,39.34
2022-08-21T11:10:00,mfh,39.38
2022-08-21T11:11:00,mfh,39.52
2022-08-21T11:12:00,mfh,39.28
2022-08-21T11:13:00,mfh,39.37
2022-08-21T11:14:00,mfh,40.53
2022-08-21T11:15:00,mfh,40.27
2022-08-21T11:16:00,mfh,40.30
2022-08-21T11:17:00,mfh,40.40
2022-08-21T11:18:00,mfh,41.92
2022-08-21T11:19:00,mfh,41.10
2022-08-21T11:20:00,mfh,41.92
2022-08-21T11:21:00,mfh,41.86
2022-08-21T11:22:00,mfh,40.36
2022-08-21T11:23:00,mfh,39.27
2022-08-21T11:24:00,mfh,39.94
2022-08-21T11:25:00,mfh,39.58
2022-08-21T11:26:00,mfh,40.81
2022-08-21T11:27:00,mfh,40.44
2022-08-21T11:28:00,mfh,40.00
2022-08-21T11:29:00,mfh,40.08
2022-08-21T11:30:00,mfh,40.32
2022-08-21T11:31:00,mfh,40.65
2022-08-21T11:32:00,mfh,39.95
2022-08-21T11:33:00,mfh,39.82
2022-08-21T11:34:00,mfh,39.75
2022-08-21T11:35:00,mfh,40.65
2022-08-21T11:36:00,mfh,40.56
2022-08-21T11:37:00,mfh,40.80
2022-08-21T11:38:00,mfh,40.27
2022-08-21T11:39:00,mfh,40.37
2022-08-21T11:40:00,mfh,40.09
2022-08-21T11:41:00,mfh,39.30
2022-08-21T11:42:00,mfh,39.15
2022-08-21T11:43:00,mfh,39.33
2022-08-21T11:44:00,mfh,39.76
2022-08-21T11:45:00,mfh,39.74
2022-08-21T11:46:00,mfh,39.32
2022-08-21T11:47:00,mfh,39.32
2022-08-21T11:48:00,mfh,39.20
2022-08-21T11:49:00,mfh,38.67
2022-08-21T11:50:00,mfh,38.47
2022-08-21T11:51:00,mfh,38.27
2022-08-21T11:52:00,mfh,38.29
2022-08-21T11:53:00,mfh,38.87
2022-08-21T11:54:00,mfh,39.03
2022-08-21T11:55:00,mfh,39.11
2022-08-21T11:56:00,mfh,39.10
2022-08-21T11:57:00,mfh,39.06
2022-08-21T11:58:00,mfh,38.14
2022-08-21T11:59:00,mfh,38.13
2022-08-21T12:00:00,mfh,38.19
2022-08-21T12:01:00,mfh,39.13
2022-08-21T12:02:00,mfh,38.99
2022-08-21T12:03:00,mfh,39.08
2022-08-21T12:04:00,mfh,39.28
2022-08-21T12:05:00,mfh,39.15
2022-08-21T12:06:00,mfh,39.12
2022-08-21T12:07:00,mfh,38.54
2022-08-21T12:08:00,mfh,39.08
2022-08-21T12:09:00,mfh,38.57
2022-08-21T12:10:00,mfh,39.76
2022-08-21T12:11:00,mfh,39.66
2022-08-21T12:12:00,mfh,39.86
2022-08-21T12:13:00,mfh,39.73
2022-08-21T12:14:00,mfh,39.89
2022-08-21T12:15:00,mfh,39.40
2022-08-21T12:16:00,mfh,38.62
2022-08-21T12:17:00,mfh,38.68
2022-08-21T12:18:00,mfh,38.77
2022-08-21T12:19:00,mfh,39.37
2022-08-21T12:20:00,mfh,39.43
2022-08-21T12:21:00,mfh,40.35
2022-08-21T12:22:00,mfh,39.39
2022-08-21T12:23:00,mfh,39.41
2022-08-21T12:24:00,mfh,39.21
2022-08-21T12:25:00,mfh,38.55
2022-08-21T12:26:00,mfh,38.45
2022-08-21T12:27:00,mfh,38.62
2022-08-21T12:28:00,mfh,39.36
2022-08-21T12:29:00,mfh,39.87
2022-08-21T12:30:00,mfh,39.34
2022-08-21T12:31:00,mfh,39.19
2022-08-21T12:32:00,mfh,39.18
2022-08-21T12:33:00,mfh,38.61
2022-08-21T12:34:00,mfh,38.71
2022-08-21T12:35:00,mfh,38.64
2022-08-21T12:36:00,mfh,39.75
2022-08-21T12:37:00,mfh,39.71
2022-08-21T12:38:00,mfh,39.61
2022-08-21T12:39:00,mfh,39.74
2022-08-21T12:40:00,mfh,39.76
2022-08-21T12:41:00,mfh,39.64
2022-08-21T12:42:00,mfh,38.92
2022-08-21T12:43:00,mfh,38.93
2022-08-21T12:44:00,mfh,39.21
2022-08-21T12:45:00,mfh,39.76
2022-08-21T12:46:00,mfh,39.62
2022-08-21T12:47:00,mfh,39.61
2022-08-21T12:48:00,mfh,39.65
2022-08-21T12:49:00,mfh,39.64
2022-08-21T12:50:00,mfh,39.09
2022-08-21T12:51:00,mfh,39.07
2022-08-21T12:52:00,mfh,38.98
2022-08-21T12:53:00,mfh,39.11
2022-08-21T12:54:00,mfh,39.63
2022-08-21T12:55:00,mfh,39.61
2022-08-21T12:56:00,mfh,39.74
2022-08-21T12:57:00,mfh,39.68
2022-08-21T12:58:00,mfh,40.23
2022-08-21T12:59:00,mfh,40.33
2022-08-21T13:00:00,mfh,40.00
2022-08-21T13:01:00,mfh,40.10
2022-08-21T13:02:00,mfh,39.38
2022-08-21T13:03:00,mfh,39.84
2022-08-21T13:04:00,mfh,39.98
2022-08-21T13:05:00,mfh,39.91
2022-08-21T13:06:00,mfh,40.02
2022-08-21T13:07:00,mfh,39.90
2022-08-21T13:08:00,mfh,39.52
2022-08-21T13:09:00,mfh,39.09
2022-08-21T13:10:00,mfh,39.18
2022-08-21T13:11:00,mfh,38.72
2022-08-21T13:12:00,mfh,39.36
2022-08-21T13:13:00,mfh,39.68
2022-08-21T13:14:00,mfh,40.09
2022-08-21T13:15:00,mfh,39.52
2022-08-21T13:16:00,mfh,39.62
2022-08-21T13:17:00,mfh,46.09
2022-08-21T13:18:00,mfh,46.98